Location: Bühlhof
(48.7849°N, 8.6361°E)
Time: 23:59:29
(UTC+00:00)

Resurs 01 Rocket - Pass Details

Date: 19 January 2026
Orbit: 628 x 635 km, 97.7° (Epoch: 18 February)

Event Time Altitude Azimuth Distance (km) Brightness Sun altitude
Rises 19:37:18 0° 210° (SSW) 2,904 5.2 -34.8°
Reaches altitude 10° 19:40:15 10° 232° (SW) 2,004 4.6 -35.3°
Maximum altitude 19:42:58 16° 271° (W) 1,645 4.4 -35.8°
Drops below altitude 10° 19:45:41 10° 309° (NW) 2,015 4.8 -36.2°
Sets 19:48:41 0° 331° (NNW) 2,930 5.5 -36.7°
